Wrangell, AK

11:07 AM AKDT on March 30, 2017 (GMT -0800)
Wrangell

Weather History for PAWG - November, 2013

Change the Weather History Date:

Monday, November 18, 2013

  Actual Average Record
Temperature  
Mean Temperature 19 °F -  
Max Temperature 21 °F 37 °F 52 °F (1952)
Min Temperature 17 °F 29 °F 8 °F (1963)
Degree Days  
Heating Degree Days 46    
Moisture  
Dew Point 1 °F    
Average Humidity 45    
Maximum Humidity 49    
Minimum Humidity 42    
Precipitation  
Precipitation 0.00 in - - ()
Sea Level Pressure  
Sea Level Pressure 29.94 in    
Wind  
Wind Speed 13 mph (East)    
Max Wind Speed 17 mph    
Max Gust Speed 22 mph    
Visibility 10 miles    
Events      
Averages and records for this station are not official NWS values.
T = Trace of Precipitation, MM = Missing Value Source: NWS Daily Summary

Daily Weather History Graph

Daily Weather History Graph

Search for Another Location

Airport or City:

Trip Planner

Search our weather history database for the weather conditions in past years. The results will help you decide how hot, cold, wet, or windy it might be!

Date:

Astronomy

Nov. 18, 2013 Rise Set
Actual Time 7:35 AM AKST 3:33 PM AKST
Civil Twilight 6:51 AM AKST 4:17 PM AKST
Nautical Twilight 6:04 AM AKST 5:03 PM AKST
Astronomical Twilight 5:20 AM AKST 5:48 PM AKST
Moon 4:37 PM AKST (11/18) 8:33 AM AKST (11/18)
Length of Visible Light 9h 25m
Length of Day
7h 57m
Full, 98% of the Moon is Illuminated
Nov 18
Full
Nov 25
Last Quarter
Dec 2
New
Dec 9
First Quarter
Dec 17
Full

Hourly Weather History & Observations

Time (AKST) Temp. Windchill Dew Point Humidity Pressure Visibility Wind Dir Wind Speed Gust Speed Precip Events Conditions
12:16 AM 21.2 °F 7.8 °F 3.2 °F 46% 29.85 in 10.0 mi ENE 15.0 mph 19.6 mph N/A   Mostly Cloudy
12:36 AM 21.2 °F 8.3 °F 3.2 °F 46% 29.85 in 10.0 mi ENE 13.8 mph 20.7 mph N/A   Mostly Cloudy
12:56 AM 21.2 °F 7.3 °F 3.2 °F 46% 29.85 in 10.0 mi ENE 16.1 mph - N/A   Overcast
1:16 AM 21.2 °F 7.8 °F 3.2 °F 46% 29.85 in 10.0 mi ENE 15.0 mph 20.7 mph N/A   Overcast
1:36 AM 21.2 °F 7.8 °F 3.2 °F 46% 29.86 in 10.0 mi ENE 15.0 mph 19.6 mph N/A   Mostly Cloudy
1:56 AM 21.2 °F 6.8 °F 3.2 °F 46% 29.86 in 10.0 mi ENE 17.3 mph 21.9 mph N/A   Overcast
2:16 AM 21.2 °F 8.3 °F 3.2 °F 46% 29.87 in 10.0 mi ENE 13.8 mph 19.6 mph N/A   Overcast
2:36 AM 21.2 °F 8.3 °F 3.2 °F 46% 29.88 in 10.0 mi ENE 13.8 mph 17.3 mph N/A   Mostly Cloudy
2:56 AM 21.2 °F 8.9 °F 3.2 °F 46% 29.88 in 10.0 mi ENE 12.7 mph - N/A   Mostly Cloudy
3:16 AM 21.2 °F 8.3 °F 3.2 °F 46% 29.89 in 10.0 mi ENE 13.8 mph 20.7 mph N/A   Mostly Cloudy
3:36 AM 21.2 °F 8.3 °F 3.2 °F 46% 29.89 in 10.0 mi East 13.8 mph 19.6 mph N/A   Scattered Clouds
3:56 AM 21.2 °F 7.8 °F 3.2 °F 46% 29.89 in 10.0 mi East 15.0 mph - N/A   Clear
4:16 AM 21.2 °F 7.8 °F 3.2 °F 46% 29.89 in 10.0 mi ENE 15.0 mph 21.9 mph N/A   Mostly Cloudy
4:36 AM 21.2 °F 8.9 °F 3.2 °F 46% 29.90 in 10.0 mi East 12.7 mph - N/A   Mostly Cloudy
4:56 AM 21.2 °F 8.3 °F 3.2 °F 46% 29.89 in 10.0 mi ENE 13.8 mph - N/A   Mostly Cloudy
5:16 AM 21.2 °F 7.8 °F 3.2 °F 46% 29.90 in 10.0 mi ENE 15.0 mph 19.6 mph N/A   Overcast
5:36 AM 21.2 °F 8.9 °F 3.2 °F 46% 29.90 in 10.0 mi East 12.7 mph 19.6 mph N/A   Overcast
5:56 AM 21.2 °F 9.5 °F 1.4 °F 42% 29.91 in 10.0 mi ENE 11.5 mph - N/A   Mostly Cloudy
6:16 AM 19.4 °F 6.6 °F 1.4 °F 46% 29.91 in 10.0 mi ENE 12.7 mph - N/A   Mostly Cloudy
6:36 AM 19.4 °F 4.5 °F 1.4 °F 46% 29.91 in 10.0 mi ENE 17.3 mph 20.7 mph N/A   Mostly Cloudy
6:56 AM 19.4 °F 6.0 °F 1.4 °F 46% 29.91 in 10.0 mi East 13.8 mph 21.9 mph N/A   Mostly Cloudy
7:16 AM 19.4 °F 6.0 °F 1.4 °F 46% 29.92 in 10.0 mi ENE 13.8 mph 20.7 mph N/A   Mostly Cloudy
7:36 AM 19.4 °F 5.0 °F 3.2 °F 49% 29.92 in 10.0 mi ENE 16.1 mph 19.6 mph N/A   Mostly Cloudy
7:56 AM 19.4 °F 6.6 °F 1.4 °F 46% 29.93 in 10.0 mi East 12.7 mph 20.7 mph N/A   Mostly Cloudy
8:16 AM 19.4 °F 5.5 °F -0.4 °F 42% 29.94 in 10.0 mi ENE 15.0 mph 19.6 mph N/A   Mostly Cloudy
8:36 AM 19.4 °F 6.6 °F 1.4 °F 46% 29.94 in 10.0 mi East 12.7 mph 20.7 mph N/A   Mostly Cloudy
8:56 AM 19.4 °F 5.0 °F 1.4 °F 46% 29.95 in 10.0 mi ENE 16.1 mph - N/A   Mostly Cloudy
9:16 AM 19.4 °F 6.0 °F 1.4 °F 46% 29.95 in 10.0 mi East 13.8 mph 19.6 mph N/A   Mostly Cloudy
9:36 AM 19.4 °F 5.5 °F 1.4 °F 46% 29.95 in 10.0 mi ENE 15.0 mph 18.4 mph N/A   Mostly Cloudy
9:56 AM 19.4 °F 5.0 °F 1.4 °F 46% 29.95 in 10.0 mi ENE 16.1 mph 19.6 mph N/A   Mostly Cloudy
10:16 AM 19.4 °F 6.6 °F 1.4 °F 46% 29.96 in 10.0 mi East 12.7 mph - N/A   Mostly Cloudy
10:36 AM 19.4 °F 6.6 °F 1.4 °F 46% 29.96 in 10.0 mi East 12.7 mph - N/A   Mostly Cloudy
10:56 AM 19.4 °F 7.9 °F 1.4 °F 46% 29.96 in 10.0 mi East 10.4 mph 21.9 mph N/A   Mostly Cloudy
11:16 AM 21.2 °F 9.5 °F 1.4 °F 42% 29.96 in 10.0 mi East 11.5 mph 17.3 mph N/A   Mostly Cloudy
11:36 AM 21.2 °F 9.5 °F 1.4 °F 42% 29.96 in 10.0 mi East 11.5 mph - N/A   Mostly Cloudy
11:56 AM 21.2 °F 8.3 °F 1.4 °F 42% 29.96 in 10.0 mi East 13.8 mph - N/A   Mostly Cloudy
12:16 PM 21.2 °F 10.9 °F 1.4 °F 42% 29.96 in 10.0 mi East 9.2 mph - N/A   Mostly Cloudy
12:36 PM 21.2 °F 8.9 °F 1.4 °F 42% 29.96 in 10.0 mi East 12.7 mph - N/A   Mostly Cloudy
12:56 PM 21.2 °F 9.5 °F 1.4 °F 42% 29.96 in 10.0 mi East 11.5 mph 16.1 mph N/A   Mostly Cloudy
1:16 PM 21.2 °F 10.1 °F 1.4 °F 42% 29.96 in 10.0 mi East 10.4 mph - N/A   Mostly Cloudy
1:36 PM 21.2 °F 10.9 °F 1.4 °F 42% 29.96 in 10.0 mi East 9.2 mph - N/A   Mostly Cloudy
1:56 PM 21.2 °F 9.5 °F 1.4 °F 42% 29.96 in 10.0 mi East 11.5 mph - N/A   Mostly Cloudy
2:16 PM 21.2 °F 9.5 °F 1.4 °F 42% 29.96 in 10.0 mi East 11.5 mph - N/A   Mostly Cloudy
2:36 PM 21.2 °F 9.5 °F 3.2 °F 46% 29.96 in 10.0 mi East 11.5 mph - N/A   Mostly Cloudy
2:56 PM 19.4 °F 7.9 °F 1.4 °F 46% 29.96 in 10.0 mi East 10.4 mph - N/A   Mostly Cloudy
3:16 PM 19.4 °F 7.2 °F 1.4 °F 46% 29.96 in 10.0 mi East 11.5 mph - N/A   Mostly Cloudy
3:36 PM 19.4 °F 7.2 °F 1.4 °F 46% 29.96 in 10.0 mi East 11.5 mph - N/A   Mostly Cloudy
3:56 PM 19.4 °F 7.2 °F 1.4 °F 46% 29.96 in 10.0 mi East 11.5 mph 16.1 mph N/A   Partly Cloudy
4:16 PM 19.4 °F 6.6 °F 1.4 °F 46% 29.96 in 10.0 mi East 12.7 mph 17.3 mph N/A   Partly Cloudy
4:36 PM 19.4 °F 7.9 °F 1.4 °F 46% 29.96 in 10.0 mi East 10.4 mph 16.1 mph N/A   Partly Cloudy
4:56 PM 19.4 °F 7.9 °F 1.4 °F 46% 29.95 in 10.0 mi East 10.4 mph 18.4 mph N/A   Partly Cloudy
5:16 PM 17.6 °F 4.3 °F 1.4 °F 49% 29.95 in 10.0 mi East 12.7 mph 17.3 mph N/A   Partly Cloudy
5:36 PM 17.6 °F 5.0 °F -0.4 °F 45% 29.95 in 10.0 mi East 11.5 mph - N/A   Partly Cloudy
5:56 PM 17.6 °F 5.7 °F -0.4 °F 45% 29.95 in 10.0 mi East 10.4 mph - N/A   Partly Cloudy
6:16 PM 17.6 °F 5.0 °F -0.4 °F 45% 29.96 in 10.0 mi East 11.5 mph - N/A   Partly Cloudy
6:36 PM 17.6 °F 6.4 °F -0.4 °F 45% 29.96 in 10.0 mi East 9.2 mph - N/A   Partly Cloudy
6:56 PM 17.6 °F 5.0 °F -0.4 °F 45% 29.96 in 10.0 mi East 11.5 mph - N/A   Partly Cloudy
7:16 PM 17.6 °F 5.0 °F -0.4 °F 45% 29.96 in 10.0 mi East 11.5 mph - N/A   Partly Cloudy
7:36 PM 17.6 °F 5.7 °F -0.4 °F 45% 29.96 in 10.0 mi East 10.4 mph - N/A   Partly Cloudy
7:56 PM 17.6 °F 5.0 °F -0.4 °F 45% 29.96 in 10.0 mi East 11.5 mph - N/A   Partly Cloudy
8:16 PM 17.6 °F 5.7 °F -0.4 °F 45% 29.96 in 10.0 mi East 10.4 mph 17.3 mph N/A   Partly Cloudy
8:36 PM 17.6 °F 4.3 °F -0.4 °F 45% 29.96 in 10.0 mi East 12.7 mph - N/A   Partly Cloudy
8:56 PM 17.6 °F 5.0 °F -0.4 °F 45% 29.97 in 10.0 mi East 11.5 mph - N/A   Partly Cloudy
9:16 PM 17.6 °F 5.0 °F -0.4 °F 45% 29.97 in 10.0 mi East 11.5 mph - N/A   Partly Cloudy
9:36 PM 17.6 °F 5.7 °F -0.4 °F 45% 29.97 in 10.0 mi East 10.4 mph - N/A   Partly Cloudy
9:56 PM 17.6 °F 5.7 °F -2.2 °F 42% 29.97 in 10.0 mi East 10.4 mph 16.1 mph N/A   Clear
10:16 PM 17.6 °F 6.4 °F -0.4 °F 45% 29.98 in 10.0 mi East 9.2 mph - N/A   Clear
10:36 PM 17.6 °F 6.4 °F -0.4 °F 45% 29.98 in 10.0 mi East 9.2 mph - N/A   Clear
10:56 PM 17.6 °F 7.3 °F -2.2 °F 42% 29.98 in 10.0 mi East 8.1 mph - N/A   Clear
11:16 PM 17.6 °F 6.4 °F -0.4 °F 45% 29.98 in 10.0 mi East 9.2 mph - N/A   Clear
11:36 PM 17.6 °F 5.0 °F -0.4 °F 45% 29.98 in 10.0 mi East 11.5 mph 17.3 mph N/A   Clear
11:56 PM 17.6 °F 5.0 °F -0.4 °F 45% 29.98 in 10.0 mi East 11.5 mph - N/A   Clear